| time (UTC) | temp F | wind direction | speed MPH | gust MPH | rain 1hr in | rain 24hr in | rain mn in | humidity % | barometer mb |
| 20260507085802 | 27 | 270 | 4.0 | 7.0 | 0.00 | 0.31 | 0.00 | 63 | 1024.7 |
| 20260507085306 | 26 | 247 | 6.0 | 7.0 | 0.00 | 0.31 | 0.00 | 64 | 1024.7 |
| 20260507083802 | 25 | 263 | 9.0 | 12.0 | 0.00 | 0.31 | 0.00 | 66 | 1024.7 |
| 20260507083303 | 25 | 247 | 10.0 | 10.0 | 0.00 | 0.31 | 0.00 | 65 | 1024.7 |
| 20260507082803 | 25 | 247 | 10.0 | 10.0 | 0.00 | 0.31 | 0.00 | 65 | 1024.7 |
| 20260507082306 | 25 | 225 | 9.0 | 10.0 | 0.00 | 0.31 | 0.00 | 64 | 1024.3 |
| 20260507081303 | 24 | 225 | 10.0 | 12.0 | 0.00 | 0.31 | 0.00 | 65 | 1024.7 |
| 20260507080802 | 24 | 225 | 10.0 | 10.0 | 0.00 | 0.31 | 0.00 | 67 | 1024.3 |
| 20260507075803 | 25 | 225 | 8.0 | 10.0 | 0.00 | 0.31 | 0.00 | 66 | 1024.7 |
| 20260507075306 | 25 | 225 | 9.0 | 9.0 | 0.00 | 0.31 | 0.00 | 66 | 1024.7 |
| 20260507073803 | 28 | 236 | 9.0 | 10.0 | 0.00 | 0.31 | 0.00 | 67 | 1024.7 |
| 20260507073303 | 28 | 247 | 7.0 | 9.0 | 0.00 | 0.31 | 0.00 | 67 | 1024.7 |
| 20260507071803 | 27 | 266 | 8.0 | 9.0 | 0.00 | 0.31 | 0.00 | 68 | 1024.7 |
| 20260507071302 | 27 | 270 | 8.0 | 9.0 | 0.00 | 0.31 | 0.00 | 67 | 1024.7 |
| 20260507070803 | 27 | 270 | 7.0 | 9.0 | 0.00 | 0.31 | 0.00 | 67 | 1024.7 |
| 20260507070302 | 27 | 270 | 7.0 | 8.0 | 0.00 | 0.31 | 0.00 | 67 | 1024.7 |
| 20260507065803 | 27 | 270 | 7.0 | 9.0 | 0.00 | 0.31 | 0.00 | 66 | 1024.7 |
| 20260507065306 | 27 | 270 | 7.0 | 8.0 | 0.00 | 0.31 | 0.00 | 67 | 1024.7 |
| 20260507064803 | 27 | 270 | 7.0 | 10.0 | 0.00 | 0.31 | 0.00 | 66 | 1024.7 |
| 20260507063803 | 27 | 270 | 8.0 | 9.0 | 0.00 | 0.31 | 0.00 | 66 | 1024.7 |
| 20260507063302 | 27 | 247 | 8.0 | 10.0 | 0.00 | 0.31 | 0.00 | 66 | 1024.7 |
| 20260507062305 | 28 | 247 | 6.0 | 8.0 | 0.00 | 0.31 | 0.00 | 67 | 1024.7 |
| 20260507061803 | 27 | 247 | 9.0 | 9.0 | 0.00 | 0.31 | 0.00 | 67 | 1024.4 |
| 20260507061302 | 28 | 247 | 9.0 | 9.0 | 0.00 | 0.31 | 0.00 | 67 | 1024.4 |
| 20260507060902 | 28 | 247 | 7.0 | 9.0 | 0.00 | 0.31 | 0.00 | 67 | 1024.4 |
| 20260507060302 | 28 | 247 | 7.0 | 8.0 | 0.00 | 0.31 | 0.00 | 67 | 1024.3 |
| 20260507055803 | 27 | 247 | 6.0 | 8.0 | 0.00 | 0.31 | 0.31 | 68 | 1024.3 |
| 20260507055305 | 27 | 254 | 7.0 | 9.0 | 0.00 | 0.31 | 0.31 | 68 | 1024.3 |
| 20260507054803 | 28 | 270 | 7.0 | 8.0 | 0.00 | 0.31 | 0.31 | 67 | 1024.3 |
| 20260507054303 | 28 | 270 | 5.0 | 7.0 | 0.00 | 0.31 | 0.31 | 67 | 1024.3 |
| 20260507052803 | 29 | 225 | 2.0 | 6.0 | 0.00 | 0.31 | 0.31 | 66 | 1024.1 |
| 20260507052306 | 28 | 225 | 7.0 | 8.0 | 0.00 | 0.31 | 0.31 | 67 | 1024.0 |
| 20260507051802 | 28 | 225 | 4.0 | 8.0 | 0.00 | 0.31 | 0.31 | 67 | 1024.0 |
| 20260507051303 | 28 | 225 | 7.0 | 9.0 | 0.00 | 0.31 | 0.31 | 67 | 1024.0 |
| 20260507050802 | 27 | 225 | 7.0 | 9.0 | 0.00 | 0.31 | 0.31 | 67 | 1024.0 |
| 20260507045803 | 27 | 213 | 7.0 | 10.0 | 0.00 | 0.31 | 0.31 | 68 | 1024.0 |
| 20260507045306 | 27 | 225 | 6.0 | 9.0 | 0.00 | 0.31 | 0.31 | 69 | 1024.0 |
| 20260507044802 | 26 | 225 | 6.0 | 9.0 | 0.00 | 0.31 | 0.31 | 70 | 1024.0 |
| 20260507044303 | 25 | 225 | 6.0 | 8.0 | 0.00 | 0.31 | 0.31 | 71 | 1023.7 |
| 20260507043803 | 25 | 225 | 8.0 | 10.0 | 0.00 | 0.31 | 0.31 | 71 | 1023.9 |
| 20260507043302 | 25 | 225 | 10.0 | 12.0 | 0.00 | 0.31 | 0.31 | 71 | 1023.7 |
| 20260507042803 | 25 | 225 | 9.0 | 10.0 | 0.00 | 0.31 | 0.31 | 71 | 1023.7 |
| 20260507042306 | 25 | 225 | 9.0 | 10.0 | 0.00 | 0.31 | 0.31 | 71 | 1023.7 |
| 20260507041803 | 26 | 225 | 9.0 | 10.0 | 0.00 | 0.31 | 0.31 | 71 | 1023.7 |
| 20260507041302 | 25 | 225 | 6.0 | 7.0 | 0.00 | 0.31 | 0.31 | 73 | 1023.7 |
| 20260507040302 | 24 | 202 | 5.0 | 10.0 | 0.00 | 0.31 | 0.31 | 73 | 1023.4 |
| 20260507035802 | 24 | 189 | 5.0 | 8.0 | 0.00 | 0.31 | 0.31 | 72 | 1023.3 |
| 20260507035306 | 24 | 196 | 7.0 | 8.0 | 0.00 | 0.31 | 0.31 | 73 | 1023.3 |
| 20260507034802 | 24 | 225 | 7.0 | 8.0 | 0.00 | 0.31 | 0.31 | 74 | 1023.7 |
| 20260507034303 | 24 | 225 | 6.0 | 8.0 | 0.00 | 0.31 | 0.31 | 74 | 1023.6 |
| 20260507033803 | 24 | 225 | 5.0 | 8.0 | 0.00 | 0.31 | 0.31 | 74 | 1023.7 |
| 20260507033302 | 24 | 225 | 8.0 | 9.0 | 0.00 | 0.31 | 0.31 | 74 | 1023.3 |
| 20260507032803 | 24 | 224 | 6.0 | 9.0 | 0.00 | 0.31 | 0.31 | 74 | 1023.3 |
| 20260507032305 | 24 | 225 | 7.0 | 8.0 | 0.00 | 0.31 | 0.31 | 74 | 1023.3 |
| 20260507031802 | 24 | 182 | 6.0 | 9.0 | 0.00 | 0.31 | 0.31 | 73 | 1023.3 |
| 20260507031303 | 24 | 185 | 5.0 | 8.0 | 0.00 | 0.31 | 0.31 | 74 | 1023.3 |
| 20260507030303 | 24 | 193 | 6.0 | 9.0 | 0.00 | 0.31 | 0.31 | 73 | 1023.3 |
| 20260507025803 | 24 | 210 | 6.0 | 10.0 | 0.00 | 0.32 | 0.31 | 73 | 1023.1 |
| 20260507024803 | 25 | 225 | 8.0 | 9.0 | 0.00 | 0.32 | 0.31 | 73 | 1023.0 |
| 20260507024302 | 25 | 225 | 2.0 | 6.0 | 0.00 | 0.32 | 0.31 | 73 | 1023.3 |
| 20260507023803 | 25 | 225 | 5.0 | 8.0 | 0.00 | 0.32 | 0.31 | 73 | 1023.3 |
| 20260507023303 | 26 | 225 | 4.0 | 7.0 | 0.00 | 0.32 | 0.31 | 73 | 1023.1 |
| 20260507022803 | 26 | 225 | 5.0 | 9.0 | 0.00 | 0.32 | 0.31 | 73 | 1023.0 |
| 20260507022306 | 26 | 225 | 5.0 | 8.0 | 0.00 | 0.32 | 0.31 | 74 | 1023.0 |
| 20260507021803 | 25 | 225 | 3.0 | 7.0 | 0.00 | 0.32 | 0.31 | 74 | 1023.0 |
| 20260507021303 | 25 | 225 | 6.0 | 8.0 | 0.00 | 0.33 | 0.31 | 75 | 1023.0 |
| 20260507020802 | 25 | 225 | 5.0 | 7.0 | 0.00 | 0.33 | 0.31 | 77 | 1023.0 |
| 20260507020303 | 24 | 225 | 6.0 | 7.0 | 0.00 | 0.33 | 0.31 | 78 | 1023.0 |
| 20260507015306 | 25 | 225 | 7.0 | 9.0 | 0.00 | 0.33 | 0.31 | 76 | 1023.0 |
| 20260507014803 | 25 | 225 | 6.0 | 7.0 | 0.00 | 0.33 | 0.31 | 76 | 1023.0 |
| 20260507014303 | 25 | 225 | 5.0 | 8.0 | 0.00 | 0.33 | 0.31 | 77 | 1023.0 |
| 20260507013803 | 26 | 225 | 7.0 | 8.0 | 0.00 | 0.33 | 0.31 | 77 | 1023.0 |
| 20260507013302 | 26 | 225 | 6.0 | 7.0 | 0.00 | 0.33 | 0.31 | 77 | 1023.0 |
| 20260507012803 | 26 | 225 | 6.0 | 6.0 | 0.00 | 0.33 | 0.31 | 76 | 1022.9 |
| 20260507012306 | 27 | 225 | 3.0 | 5.0 | 0.00 | 0.33 | 0.31 | 73 | 1022.7 |
| 20260507011802 | 28 | 180 | 3.0 | 5.0 | 0.00 | 0.33 | 0.31 | 71 | 1022.9 |
| 20260507010803 | 28 | 225 | 5.0 | 6.0 | 0.00 | 0.34 | 0.31 | 71 | 1023.0 |
| 20260507005802 | 29 | 225 | 5.0 | 6.0 | 0.00 | 0.34 | 0.31 | 69 | 1023.0 |
| 20260507005305 | 29 | 225 | 3.0 | 5.0 | 0.00 | 0.34 | 0.31 | 69 | 1023.0 |
| 20260507004303 | 29 | 180 | 1.0 | 2.0 | 0.00 | 0.35 | 0.31 | 69 | 1023.0 |
| 20260507003803 | 30 | 180 | 0.0 | 2.0 | 0.00 | 0.35 | 0.31 | 68 | 1023.0 |
| 20260507003303 | 30 | 180 | 2.0 | 2.0 | 0.00 | 0.35 | 0.31 | 67 | 1023.0 |
| 20260507002803 | 30 | 180 | 2.0 | 2.0 | 0.00 | 0.36 | 0.31 | 66 | 1022.7 |
| 20260507002305 | 31 | 180 | 2.0 | 3.0 | 0.00 | 0.36 | 0.31 | 66 | 1022.9 |
| 20260507001803 | 32 | 225 | 2.0 | 2.0 | 0.00 | 0.36 | 0.31 | 66 | 1023.0 |
| 20260507001302 | 32 | 225 | 2.0 | 2.0 | 0.00 | 0.36 | 0.31 | 67 | 1022.7 |
| 20260507000803 | 32 | 225 | 2.0 | 3.0 | 0.00 | 0.36 | 0.31 | 67 | 1023.0 |
| 20260507000303 | 31 | 225 | 2.0 | 3.0 | 0.00 | 0.36 | 0.31 | 67 | 1022.9 |
| 20260506235803 | 31 | 292 | 0.0 | 0.0 | 0.00 | 0.37 | 0.31 | 67 | 1023.0 |
| 20260506235306 | 31 | 292 | 0.0 | 0.0 | 0.00 | 0.37 | 0.31 | 69 | 1022.7 |
| 20260506234803 | 29 | 292 | 0.0 | 0.0 | 0.00 | 0.37 | 0.31 | 72 | 1022.7 |
| 20260506234303 | 28 | 292 | 2.0 | 3.0 | 0.00 | 0.37 | 0.31 | 73 | 1022.9 |
| 20260506233802 | 29 | 315 | 3.0 | 3.0 | 0.00 | 0.37 | 0.31 | 73 | 1023.0 |
| 20260506233303 | 29 | 315 | 2.0 | 2.0 | 0.00 | 0.37 | 0.31 | 74 | 1022.7 |
| 20260506232803 | 30 | 315 | 3.0 | 3.0 | 0.00 | 0.37 | 0.31 | 76 | 1022.7 |
| 20260506232306 | 30 | 337 | 2.0 | 3.0 | 0.00 | 0.37 | 0.31 | 78 | 1022.7 |
| 20260506231803 | 30 | 0 | 2.0 | 3.0 | 0.00 | 0.37 | 0.31 | 77 | 1022.7 |
| 20260506230802 | 30 | 0 | 3.0 | 5.0 | 0.00 | 0.37 | 0.31 | 76 | 1022.6 |
| 20260506230303 | 31 | 0 | 4.0 | 5.0 | 0.00 | 0.37 | 0.31 | 76 | 1022.4 |
| 20260506225803 | 31 | 0 | 5.0 | 6.0 | 0.00 | 0.37 | 0.31 | 74 | 1022.4 |
| 20260506224803 | 31 | 23 | 4.0 | 5.0 | 0.00 | 0.37 | 0.31 | 70 | 1022.3 |
| 20260506223802 | 31 | 45 | 4.0 | 5.0 | 0.00 | 0.37 | 0.31 | 69 | 1022.3 |
| 20260506222803 | 33 | 45 | 4.0 | 5.0 | 0.00 | 0.37 | 0.31 | 65 | 1022.3 |
| 20260506222305 | 34 | 22 | 3.0 | 5.0 | 0.00 | 0.37 | 0.31 | 64 | 1022.3 |
| 20260506221303 | 33 | 0 | 3.0 | 5.0 | 0.00 | 0.37 | 0.31 | 74 | 1022.3 |
| 20260506220803 | 32 | 0 | 5.0 | 7.0 | 0.00 | 0.37 | 0.31 | 76 | 1022.3 |
| 20260506220303 | 32 | 0 | 6.0 | 8.0 | 0.00 | 0.37 | 0.31 | 75 | 1022.3 |
| 20260506215802 | 32 | 0 | 6.0 | 8.0 | 0.00 | 0.37 | 0.31 | 73 | 1022.3 |
| 20260506215306 | 33 | 0 | 6.0 | 8.0 | 0.01 | 0.37 | 0.31 | 72 | 1022.3 |
| 20260506214803 | 34 | 0 | 5.0 | 6.0 | 0.01 | 0.37 | 0.31 | 70 | 1022.3 |
| 20260506214303 | 35 | 0 | 3.0 | 6.0 | 0.01 | 0.37 | 0.31 | 68 | 1022.3 |
| 20260506213803 | 37 | 337 | 5.0 | 7.0 | 0.01 | 0.37 | 0.31 | 62 | 1022.6 |
| 20260506213303 | 37 | 315 | 5.0 | 5.0 | 0.02 | 0.37 | 0.31 | 59 | 1022.3 |
| 20260506212803 | 37 | 270 | 1.0 | 2.0 | 0.02 | 0.37 | 0.31 | 60 | 1022.6 |
| 20260506212306 | 38 | 270 | 2.0 | 2.0 | 0.02 | 0.37 | 0.31 | 57 | 1022.4 |
| 20260506211802 | 39 | 270 | 0.0 | 1.0 | 0.02 | 0.37 | 0.31 | 55 | 1022.6 |
| 20260506210803 | 37 | 270 | 0.0 | 0.0 | 0.03 | 0.37 | 0.31 | 58 | 1022.3 |
| 20260506210304 | 36 | 270 | 0.0 | 0.0 | 0.04 | 0.37 | 0.31 | 63 | 1022.3 |
| 20260506204803 | 29 | 270 | 2.0 | 3.0 | 0.05 | 0.36 | 0.30 | 73 | 1022.3 |
| 20260506203803 | 31 | 315 | 3.0 | 5.0 | 0.07 | 0.36 | 0.30 | 71 | 1022.3 |
| 20260506203302 | 33 | 315 | 3.0 | 5.0 | 0.07 | 0.35 | 0.29 | 71 | 1022.3 |
| 20260506202803 | 33 | 315 | 5.0 | 7.0 | 0.09 | 0.35 | 0.29 | 70 | 1022.3 |
| 20260506202306 | 34 | 315 | 5.0 | 6.0 | 0.11 | 0.35 | 0.29 | 69 | 1022.3 |
| 20260506201803 | 35 | 336 | 3.0 | 5.0 | 0.13 | 0.35 | 0.29 | 69 | 1022.3 |
| 20260506201302 | 37 | 337 | 5.0 | 6.0 | 0.14 | 0.34 | 0.28 | 67 | 1022.3 |
| 20260506200303 | 39 | 315 | 3.0 | 5.0 | 0.15 | 0.33 | 0.27 | 64 | 1022.3 |
| 20260506195803 | 40 | 327 | 3.0 | 5.0 | 0.16 | 0.33 | 0.27 | 63 | 1022.3 |
| 20260506194803 | 39 | 157 | 0.0 | 0.0 | 0.16 | 0.31 | 0.25 | 66 | 1022.3 |
| 20260506194303 | 37 | 157 | 0.0 | 1.0 | 0.16 | 0.30 | 0.24 | 71 | 1022.0 |
| 20260506193302 | 34 | 157 | 0.0 | 3.0 | 0.14 | 0.28 | 0.22 | 78 | 1021.7 |
| 20260506192802 | 34 | 171 | 2.0 | 5.0 | 0.12 | 0.26 | 0.20 | 84 | 1021.9 |
| 20260506192305 | 34 | 310 | 0.0 | 6.0 | 0.11 | 0.24 | 0.18 | 88 | 1022.0 |
| 20260506191303 | 33 | 292 | 1.0 | 2.0 | 0.07 | 0.20 | 0.14 | 89 | 1022.2 |
| 20260506190803 | 32 | 0 | 2.0 | 3.0 | 0.06 | 0.19 | 0.13 | 89 | 1022.0 |
| 20260506190303 | 31 | 22 | 3.0 | 5.0 | 0.05 | 0.18 | 0.12 | 89 | 1022.0 |
| 20260506185802 | 30 | 22 | 4.0 | 6.0 | 0.04 | 0.17 | 0.11 | 89 | 1022.0 |
| 20260506185306 | 30 | 22 | 5.0 | 6.0 | 0.03 | 0.16 | 0.10 | 89 | 1021.7 |
| 20260506184802 | 29 | 22 | 5.0 | 7.0 | 0.02 | 0.15 | 0.09 | 89 | 1022.0 |
| 20260506184303 | 29 | 22 | 7.0 | 8.0 | 0.01 | 0.14 | 0.08 | 89 | 1021.7 |
| 20260506183803 | 28 | 22 | 5.0 | 6.0 | 0.01 | 0.14 | 0.08 | 89 | 1021.6 |
| 20260506183303 | 27 | 22 | 3.0 | 3.0 | 0.01 | 0.14 | 0.08 | 89 | 1021.6 |
| 20260506182803 | 26 | 22 | 3.0 | 6.0 | 0.01 | 0.14 | 0.08 | 88 | 1021.6 |
| 20260506181803 | 24 | 22 | 2.0 | 3.0 | 0.00 | 0.13 | 0.07 | 88 | 1021.3 |
| 20260506181303 | 23 | 22 | 0.0 | 2.0 | 0.00 | 0.13 | 0.07 | 88 | 1021.6 |
| 20260506180803 | 23 | 22 | 2.0 | 2.0 | 0.00 | 0.13 | 0.07 | 88 | 1021.6 |
| 20260506180304 | 23 | 22 | 0.0 | 1.0 | 0.00 | 0.13 | 0.07 | 88 | 1021.6 |
| 20260506175802 | 22 | 22 | 0.0 | 1.0 | 0.00 | 0.13 | 0.07 | 88 | 1021.6 |
| 20260506175306 | 22 | 22 | 0.0 | 2.0 | 0.00 | 0.13 | 0.07 | 88 | 1021.6 |
| 20260506174803 | 22 | 22 | 1.0 | 5.0 | 0.00 | 0.13 | 0.07 | 88 | 1021.6 |
| 20260506173802 | 23 | 22 | 7.0 | 12.0 | 0.01 | 0.13 | 0.07 | 88 | 1021.6 |
| 20260506172306 | 23 | 22 | 7.0 | 12.0 | 0.02 | 0.13 | 0.07 | 87 | 1021.6 |
| 20260506171803 | 23 | 22 | 9.0 | 13.0 | 0.02 | 0.13 | 0.07 | 87 | 1021.6 |
| 20260506171303 | 24 | 22 | 12.0 | 15.0 | 0.04 | 0.13 | 0.07 | 88 | 1021.6 |
| 20260506170803 | 24 | 22 | 12.0 | 16.0 | 0.04 | 0.13 | 0.07 | 87 | 1021.3 |
| 20260506170303 | 25 | 22 | 11.0 | 14.0 | 0.04 | 0.13 | 0.07 | 87 | 1021.3 |
| 20260506165803 | 25 | 22 | 12.0 | 16.0 | 0.06 | 0.13 | 0.07 | 87 | 1021.3 |
| 20260506165305 | 26 | 22 | 10.0 | 15.0 | 0.06 | 0.13 | 0.07 | 87 | 1021.3 |
| 20260506164303 | 26 | 90 | 5.0 | 9.0 | 0.07 | 0.13 | 0.07 | 87 | 1020.7 |
| 20260506163803 | 26 | 118 | 9.0 | 13.0 | 0.06 | 0.12 | 0.06 | 88 | 1020.3 |
| 20260506163303 | 26 | 135 | 13.0 | 17.0 | 0.06 | 0.12 | 0.06 | 88 | 1019.9 |
| 20260506162306 | 27 | 135 | 13.0 | 17.0 | 0.05 | 0.11 | 0.05 | 88 | 1019.6 |
| 20260506161803 | 28 | 135 | 13.0 | 18.0 | 0.05 | 0.11 | 0.05 | 88 | 1019.6 |
| 20260506161303 | 29 | 135 | 9.0 | 16.0 | 0.03 | 0.09 | 0.03 | 88 | 1019.6 |
| 20260506160803 | 29 | 0 | 5.0 | 12.0 | 0.03 | 0.09 | 0.03 | 89 | 1019.6 |
| 20260506160303 | 30 | 0 | 6.0 | 9.0 | 0.03 | 0.09 | 0.03 | 89 | 1019.3 |
| 20260506154803 | 30 | 0 | 3.0 | 5.0 | 0.00 | 0.06 | 0.00 | 90 | 1019.6 |
| 20260506154303 | 30 | 0 | 3.0 | 5.0 | 0.00 | 0.06 | 0.00 | 90 | 1019.6 |
| 20260506153803 | 30 | 0 | 3.0 | 5.0 | 0.00 | 0.06 | 0.00 | 90 | 1019.4 |
| 20260506153303 | 30 | 0 | 3.0 | 3.0 | 0.00 | 0.06 | 0.00 | 90 | 1019.6 |
| 20260506152803 | 29 | 0 | 2.0 | 3.0 | 0.00 | 0.06 | 0.00 | 89 | 1019.6 |
| 20260506152305 | 28 | 7 | 1.0 | 3.0 | 0.00 | 0.06 | 0.00 | 89 | 1019.6 |
| 20260506151803 | 27 | 90 | 0.0 | 2.0 | 0.00 | 0.06 | 0.00 | 89 | 1019.4 |
| 20260506151303 | 26 | 90 | 3.0 | 5.0 | 0.00 | 0.06 | 0.00 | 89 | 1019.3 |
| 20260506145803 | 25 | 90 | 4.0 | 6.0 | 0.00 | 0.06 | 0.00 | 89 | 1019.6 |
| 20260506145305 | 25 | 112 | 5.0 | 9.0 | 0.00 | 0.06 | 0.00 | 89 | 1019.3 |
| 20260506144803 | 25 | 118 | 8.0 | 10.0 | 0.00 | 0.06 | 0.00 | 89 | 1019.3 |
| 20260506144303 | 24 | 117 | 10.0 | 13.0 | 0.00 | 0.06 | 0.00 | 89 | 1019.3 |
| 20260506143803 | 24 | 135 | 10.0 | 13.0 | 0.00 | 0.06 | 0.00 | 89 | 1019.3 |
| 20260506143303 | 24 | 135 | 10.0 | 13.0 | 0.00 | 0.06 | 0.00 | 89 | 1019.3 |
| 20260506142803 | 25 | 135 | 9.0 | 10.0 | 0.00 | 0.06 | 0.00 | 89 | 1019.3 |
| 20260506142305 | 25 | 135 | 7.0 | 9.0 | 0.00 | 0.06 | 0.00 | 89 | 1019.3 |
| 20260506141803 | 25 | 135 | 7.0 | 9.0 | 0.00 | 0.06 | 0.00 | 89 | 1019.3 |
| 20260506141303 | 25 | 180 | 6.0 | 6.0 | 0.00 | 0.06 | 0.00 | 89 | 1019.5 |
| 20260506140303 | 24 | 315 | 0.0 | 2.0 | 0.00 | 0.06 | 0.00 | 88 | 1019.6 |
| 20260506135803 | 24 | 315 | 2.0 | 7.0 | 0.00 | 0.06 | 0.00 | 88 | 1019.6 |
| 20260506135306 | 24 | 336 | 7.0 | 9.0 | 0.00 | 0.06 | 0.00 | 88 | 1019.6 |
| 20260506134803 | 24 | 0 | 9.0 | 12.0 | 0.00 | 0.06 | 0.00 | 88 | 1019.9 |
| 20260506134303 | 24 | 357 | 8.0 | 12.0 | 0.00 | 0.06 | 0.00 | 88 | 1019.7 |
| 20260506133803 | 24 | 0 | 10.0 | 14.0 | 0.00 | 0.06 | 0.00 | 89 | 1019.6 |
| 20260506133303 | 25 | 336 | 12.0 | 14.0 | 0.00 | 0.06 | 0.00 | 89 | 1019.6 |
| 20260506132803 | 25 | 330 | 10.0 | 13.0 | 0.00 | 0.06 | 0.00 | 89 | 1019.6 |
| 20260506131802 | 25 | 322 | 7.0 | 14.0 | 0.00 | 0.06 | 0.00 | 89 | 1019.4 |
| 20260506131303 | 25 | 339 | 10.0 | 14.0 | 0.00 | 0.06 | 0.00 | 89 | 1019.6 |
| 20260506130304 | 25 | 322 | 12.0 | 16.0 | 0.00 | 0.06 | 0.00 | 89 | 1019.3 |
| 20260506125804 | 25 | 320 | 13.0 | 17.0 | 0.00 | 0.06 | 0.00 | 89 | 1019.3 |
| 20260506125305 | 25 | 325 | 13.0 | 17.0 | 0.00 | 0.06 | 0.00 | 89 | 1019.1 |
| 20260506124303 | 25 | 321 | 18.0 | 22.0 | 0.00 | 0.06 | 0.00 | 89 | 1018.6 |
| 20260506123803 | 25 | 318 | 17.0 | 22.0 | 0.00 | 0.06 | 0.00 | 89 | 1018.6 |
| 20260506123302 | 26 | 315 | 16.0 | 22.0 | 0.00 | 0.06 | 0.00 | 89 | 1018.6 |
| 20260506122305 | 26 | 315 | 14.0 | 21.0 | 0.00 | 0.06 | 0.00 | 89 | 1018.1 |
| 20260506121304 | 27 | 321 | 8.0 | 10.0 | 0.00 | 0.06 | 0.00 | 89 | 1018.0 |
| 20260506120303 | 27 | 320 | 7.0 | 9.0 | 0.00 | 0.06 | 0.00 | 89 | 1017.9 |
| 20260506115803 | 27 | 315 | 6.0 | 8.0 | 0.00 | 0.06 | 0.00 | 89 | 1017.9 |
| 20260506115306 | 27 | 328 | 5.0 | 7.0 | 0.00 | 0.06 | 0.00 | 89 | 1017.8 |
| 20260506114804 | 27 | 0 | 6.0 | 7.0 | 0.00 | 0.06 | 0.00 | 89 | 1017.9 |
| 20260506113803 | 27 | 347 | 6.0 | 7.0 | 0.00 | 0.06 | 0.00 | 89 | 1017.6 |
| 20260506113304 | 27 | 330 | 6.0 | 7.0 | 0.00 | 0.06 | 0.00 | 90 | 1017.7 |
| 20260506112803 | 28 | 337 | 7.0 | 8.0 | 0.00 | 0.06 | 0.00 | 90 | 1017.9 |
| 20260506112306 | 28 | 0 | 6.0 | 8.0 | 0.00 | 0.06 | 0.00 | 90 | 1017.9 |
| 20260506111803 | 28 | 359 | 7.0 | 9.0 | 0.00 | 0.06 | 0.00 | 90 | 1017.9 |
| 20260506111303 | 28 | 0 | 5.0 | 8.0 | 0.00 | 0.06 | 0.00 | 90 | 1017.7 |
| 20260506110803 | 28 | 0 | 5.0 | 8.0 | 0.00 | 0.06 | 0.00 | 90 | 1017.6 |
| 20260506110303 | 28 | 0 | 5.0 | 7.0 | 0.00 | 0.06 | 0.00 | 90 | 1017.9 |
| 20260506105803 | 28 | 0 | 7.0 | 8.0 | 0.00 | 0.06 | 0.00 | 90 | 1017.9 |
| 20260506105305 | 28 | 0 | 3.0 | 5.0 | 0.00 | 0.06 | 0.00 | 90 | 1017.6 |
| 20260506104803 | 28 | 0 | 3.0 | 5.0 | 0.00 | 0.06 | 0.00 | 90 | 1017.7 |
| 20260506104303 | 28 | 0 | 4.0 | 5.0 | 0.00 | 0.06 | 0.00 | 90 | 1017.6 |
| 20260506103303 | 29 | 351 | 5.0 | 7.0 | 0.00 | 0.06 | 0.00 | 90 | 1017.8 |
| 20260506102803 | 29 | 0 | 5.0 | 6.0 | 0.00 | 0.06 | 0.00 | 90 | 1017.9 |
| 20260506102305 | 29 | 0 | 5.0 | 6.0 | 0.00 | 0.06 | 0.00 | 90 | 1017.9 |
| 20260506101803 | 29 | 0 | 5.0 | 7.0 | 0.00 | 0.06 | 0.00 | 90 | 1017.9 |
| 20260506101303 | 29 | 0 | 5.0 | 6.0 | 0.00 | 0.06 | 0.00 | 90 | 1017.9 |
| 20260506100304 | 29 | 0 | 1.0 | 2.0 | 0.00 | 0.06 | 0.00 | 90 | 1017.9 |
| 20260506095803 | 29 | 0 | 0.0 | 0.0 | 0.00 | 0.06 | 0.00 | 90 | 1017.8 |
| 20260506095305 | 29 | 0 | 0.0 | 1.0 | 0.00 | 0.06 | 0.00 | 90 | 1017.9 |
| 20260506094803 | 29 | 0 | 1.0 | 2.0 | 0.00 | 0.06 | 0.00 | 90 | 1017.9 |
| 20260506094303 | 29 | 0 | 1.0 | 2.0 | 0.00 | 0.06 | 0.00 | 90 | 1017.9 |
| 20260506093803 | 29 | 0 | 1.0 | 2.0 | 0.00 | 0.06 | 0.00 | 90 | 1017.9 |
| 20260506093303 | 29 | 0 | 2.0 | 2.0 | 0.00 | 0.06 | 0.00 | 90 | 1017.9 |
| 20260506092803 | 29 | 0 | 3.0 | 3.0 | 0.00 | 0.06 | 0.00 | 90 | 1017.9 |
| 20260506092305 | 29 | 0 | 3.0 | 5.0 | 0.00 | 0.06 | 0.00 | 90 | 1017.9 |
| 20260506091803 | 29 | 0 | 4.0 | 5.0 | 0.00 | 0.06 | 0.00 | 90 | 1017.9 |
| 20260506091304 | 29 | 0 | 3.0 | 5.0 | 0.00 | 0.06 | 0.00 | 90 | 1017.9 |
| 20260506090803 | 29 | 0 | 2.0 | 3.0 | 0.00 | 0.06 | 0.00 | 90 | 1017.9 |